Location: Hawks Ness
(60.2333°N, 1.1667°W)
Time: 14:45:53
(UTC+00:00)

BREEZE-M DEB (TANK) - Pass Details

Date: 22 October 2019
Orbit: 309 x 15441 km, 49.5° (Epoch: 21 November)

Event Time Altitude Azimuth Distance (km) Brightness Sun altitude
Exits shadow 04:08:29 18° 173° (S) 1,468 4.4 -21.8°
Drops below altitude 10° 04:10:12 10° 138° (SE) 1,572 4.9 -21.6°
Sets 04:12:02 0° 114° (ESE) 2,162 6.1 -21.4°
